Home > Weather > Bridgewater > Past weeks

Flag for USA Past Weather in Bridgewater, Massachusetts, USA — Yesterday and Last 2 Weeks

Now
80 °F

Sunny.


Feels Like: 81 °F
Forecast: 69 / 92 °F
Wind: No wind

Location: Taunton Municipal Airport

Current Time: Jul 27, 2016 at 9:27:44 AM

Latest Report: Jul 27, 2016 at 8:52 AM


Visibility: 10 mi

Pressure: 29.92 "Hg

Humidity: 54%

Dew Point: 62 °F

Location of BridgewaterLocation

Past Weather in Bridgewater — Graph

°F

Bridgewater Temperature Yesterday

Maximum temperature yesterday: 93 °F (at 3:52 PM)
Minimum temperature yesterday: 66 °F (at 11:52 PM)
Average temperature yesterday: 80 °F

High & Low Weather Summary for the Past Weeks

 TemperatureHumidityPressure
High94 °F (Jul 23, 3:52 PM)97% (Jul 15, 2:52 AM)30.20 "Hg (Jul 15, 2:52 AM)
Low50 °F (Jul 20, 4:52 AM)29% (Jul 20, 1:52 PM)29.70 "Hg (Jul 23, 4:52 PM)
Average76 °F69%29.95 "Hg
* Reported Jul 12 7:52 AM — Jul 27 7:52 AM, Bridgewater, Weather by CustomWeather, © 2016

Note: Actual official high and low records may vary slightly from our data, if they occured in-between our weather recording intervals... More about our weather records

Advertising

Bridgewater Weather History for the Previous 24 Hours

Scroll right to see more
 ConditionsComfort  
Time TempWeatherWind HumidityBarometerVisibility
7:52 AM
Wed, Jul 27
75 °FSunny.3 mph66%29.92 "Hg10 mi
6:52 AM67 °FSunny.No wind87%29.92 "Hg10 mi
5:52 AM59 °FFog.No wind93%29.91 "Hg4 mi
5:03 AM59 °FFog.No wind93%29.90 "Hg2 mi
3:52 AM61 °FClear.No wind93%29.89 "Hg7 mi
2:52 AM62 °FClear.No wind90%29.89 "Hg10 mi
1:52 AM63 °FClear.No wind93%29.88 "Hg10 mi
12:52 AM65 °FClear.No wind91%29.88 "Hg10 mi
11:52 PM
Tue, Jul 26
66 °FPassing clouds.No wind90%29.88 "Hg10 mi
10:52 PM68 °FPassing clouds.No wind87%29.86 "Hg10 mi
9:52 PM71 °FClear.No wind78%29.85 "Hg10 mi
8:52 PM71 °FSunny.No wind78%29.82 "Hg10 mi
7:52 PM81 °FSunny.No wind56%29.79 "Hg10 mi
6:52 PM89 °FScattered clouds.8 mph38%29.78 "Hg10 mi
5:52 PM92 °FScattered clouds.8 mph33%29.77 "Hg10 mi
4:52 PM93 °FScattered clouds.12 mph33%29.76 "Hg10 mi
3:52 PM93 °FPassing clouds.9 mph32%29.76 "Hg10 mi
2:52 PM92 °FScattered clouds.8 mph33%29.77 "Hg10 mi
1:52 PM92 °FPassing clouds.9 mph35%29.77 "Hg10 mi
12:52 PM92 °FPassing clouds.9 mph36%29.78 "Hg10 mi
11:52 AM89 °FSunny.10 mph41%29.79 "Hg10 mi
10:52 AM88 °FPassing clouds.8 mph43%29.79 "Hg10 mi
9:52 AM84 °FSunny.8 mph51%29.80 "Hg10 mi
Weather by CustomWeather, © 2016

See weather overviewHow to use our weather pages